NOAA 16 DEB, 41304

Orbit data source: Space-Track

NOAA 16 DEB, 41304 is space debris in SSO originally from a launch on Thu, 21 Sep 2000 UTC launched from the Air Force Western Test Range (AFWTR). Debris objects in space refer to the collection of defunct objects orbiting the Earth. Examples of debris include non-operational satellites, rocket bodies, and fragments generated from explosions, collisions, or faulty payload assembly.

Loading next visibility...
Identifier
41304, 2000-055HG
Orbit
SSO
Country
Flag of USUS
Related business
Manufacturer
Unknown
Mission
Spacecraft
Bus & Motor
Unknown
Mass
Unknown
Launch date (UTC)
2000-09-21 (26 years ago)
Launch vehicle
Unknown
Launch site
Air Force Western Test Range (AFWTR)
Object type
Payload
Rocket body
Debris
Shape & HBR
Unknown shape, 0.1 m
Radar Cross Section
Small (<0.1 m²)

Expand to show TLE details & history
Last TLE update: 5 days ago

TLE from 5 days ago
0 NOAA 16 DEB
1 41304U 00055HG  26119.24877152  .00006173  00000-0  21149-2 0  9993
2 41304  99.0722 284.0488 0031821  61.1713 299.2660 14.36285082533476
Epoch: 2026-04-29T05:58Z
TLE epoch observation values (Epoch: 2026-04-29T05:58:13.859Z)
Latitude
0.00003°
Longitude
-22.7214°
Altitude
762.656 km
Speed
7.479 km/s
True Right ascension
18h 56m 11s
True Declination
0° 00' 00"
Sunlit
Object was in daylight at epoch
Visualization orbit readout
Latitude
Unknown
Longitude
Unknown
Altitude
Unknown
Speed
Unknown
Apparent Right ascension
Unknown
Apparent Declination
Unknown
Sunlit
N/A
Visualization observer readout
Local Sidereal Time
18:49:17
Azimuth
Unknown
Elevation
Unknown
Doppler factor
Unknown
Orbital elements
Apogee altitude
790.693 km
Perigee altitude
745.214 km
Semi-major axis
7,146.091 km
Eccentricity
0.00318
Inclination
99.0722°
RAAN
284.0488°
Arg. of periapsis
61.1713°
True anomaly
298.94728°
Mean anomaly
299.266°
Eccentric anomaly
299.1067°
Mean motion
3.59286 °/min
Orbital period
100.2 mins
BSTAR
0.0021149
Loading maneuver chart data...
Computing Atmospheric mass density...
Loading historical data...
Loading historical data...
Loading historical data...
Loading historical data...
Loading historical data...
Loading historical data...
Loading historical data...

Documentation

Showing up to 5 results
|